User: anonymous   Login
Location: Holcomb Observatory
(44.4922°N, 73.1654°W)
Time: 10:17:13
(UTC-04:00)
Language:

SL-16 R/B - Orbit

View from above orbital plane
View from above orbital plane
View from above satellite
View from above satellite

Ground track
Ground track

The orbit data is extracted from the following two-line orbital elements,

1 27006U 01056F   15246.93963589 +.00000003 +00000-0 +51040-4 0  9994
2 27006 099.2185 040.4999 0014208 208.7247 260.5063 13.70963935687033
Epoch (UTC): 03 September 2015 22:33:04
Eccentricity: 0.0014208
inclination: 99.2185°
perigee height: 985 km
apogee height: 1006 km
right ascension of ascending node: 40.4999°
argument of perigee: 208.7247°
revolutions per day: 13.70963935
mean anomaly at epoch: 260.5063°
orbit number at epoch: 68703

The dashed part of the orbit path shows where the satellite is in the earth's shadow,  

DLR